Simultaneous Nadir Overpasses (SNOs) Predictions

Prediction of SNOs between GOES-16 and NOAA-19 Satellite Orbit:

Table of predicted SNOs for the next 14.0 days since TLE Epoch: 8/19/2023
Index Date Time (GOES-16) GOES-16 Lat,Lon NOAA-19 Lat,Lon Distance(km) Time Diff (sec)
1 08/20/2023 01:31:14 0.02, -75.21 0.84, -71.75 394.97 80
2 08/21/2023 14:00:30 -0.02, -75.22 0.94, -79.41 477.39 80
3 08/22/2023 13:48:25 -0.02, -75.23 0.28, -76.47 141.23 80
4 08/23/2023 13:39:01 -0.02, -75.24 -0.39, -73.52 194.98 80
5 08/26/2023 01:56:31 0.02, -75.24 -0.68, -78.32 351.01 80
6 08/27/2023 01:44:26 0.02, -75.25 0.00, -75.38 14.81 80
7 08/28/2023 01:32:22 0.02, -75.26 0.68, -72.44 321.61 80
8 08/30/2023 13:54:55 -0.01, -75.29 0.41, -77.16 213.45 80
9 08/31/2023 13:40:10 -0.01, -75.30 -0.26, -74.22 123.58 80
10 09/01/2023 13:28:06 -0.01, -75.32 -0.94, -71.28 460.81 80
